Regional Weather Roundup
Issued by NWS

Current Version | Previous Version | Graphics & Text | Print | Product List | Glossary On
Versions: 1 2 3 4 5 6 7 8 9 10 11 12 13 14 15 16 17 18 19 20 21 22 23 24 25 26 27 28 29 30 31 32 33 34 35 36 37 38 39 40 41 42 43 44 45 46 47 48 49 50
000
ASHW40 PHFO 200112
RWRHI

WEATHER ROUNDUP FOR HAWAII
NATIONAL WEATHER SERVICE HONOLULU HI
300 PM HST MON FEB 19 2018

THIS IS AN AUTOMATED REPORT THAT HAS NOT BEEN QUALITY CONTROLLED.

NOTE..."FAIR" INDICATES FEW OR NO CLOUDS BELOW 12,000 FEET WITH NO
SIGNIFICANT WEATHER AND/OR OBSTRUCTIONS TO VISIBILITY.

* - THESE SITES REPORT LIMITED FIELDS
# - BUOY DATA PROVIDED BY PACIFIC ISLANDS OCEAN OBSERVING SYSTEM.

HIZ001>004-200200-
KAUAI-NIIHAU-

CITY           SKY/WX    TMP DP  RH WIND       PRES   REMARKS
LIHUE APT      MOSUNNY   76  65  68 NE10      29.93S
PORT ALLEN*      N/A     77 N/A N/A SW5         N/A
POIPU*           N/A     75 N/A N/A E8G15       N/A
PRINCEVILLE*     N/A     73 N/A N/A NE7         N/A
KOKOLE POINT*  NOT AVBL
MOLOAA DAIRY*    N/A     75  64  69 E2G12       N/A
WAIMEA HTS*    NOT AVBL
PUU OPAE*      NOT AVBL
PUU LUA*       NOT AVBL
MAKAHA RIDGE*  NOT AVBL
$$

HIZ005>011-200200-
OAHU-

CITY           SKY/WX    TMP DP  RH WIND       PRES   REMARKS
HONOLULU       MOSUNNY   79  64  60 SE10      29.88F
KALAELOA         N/A     76  63  64 S6        29.90F
KANEOHE MCB    SUNNY     77  65  66 N7        29.87F
WHEELER FIELD  CLOUDY    74  66  75 N7        29.92F
BELLOWS*       NOT AVBL
KAHUKU*        NOT AVBL
WHEELER*       NOT AVBL
WAIANAE HARBOR NOT AVBL
DILLINGHAM*    NOT AVBL
KAHUKU TRN*      N/A     77  66  69 W3G13       N/A
KAWAILOA*        N/A     73  63  68 E2G9        N/A
KII*             N/A     75  64  69 E8          N/A
MAKUA RANGE*     N/A     79  63  57 E6          N/A
OAHU FOREST NW NOT AVBL
SCHOFIELD BRK*   N/A     75  63  64 MISG        N/A
SCHOFIELD S*   NOT AVBL
WAIANAE VLY*   NOT AVBL
KUAOKALA*      NOT AVBL
HONOULIUULI*   NOT AVBL
MOKUOLOE IS*   NOT AVBL
PALEHUA*       NOT AVBL
WAIAWA PHB*    NOT AVBL
$$

HIZ012>013-200200-
MOLOKAI-

CITY           SKY/WX    TMP DP  RH WIND       PRES   REMARKS
MOLOKAI AIRPT  SUNNY     75  63  66 N10       29.90F
KALAUPAPA      NOT AVBL
MAKAPULAPAI*   NOT AVBL
MOLOKAI 1*     NOT AVBL
PUU ALII*      NOT AVBL
$$

HIZ016-200200-
KAHOOLAWE-

CITY           SKY/WX    TMP DP  RH WIND       PRES   REMARKS
KAHOOLAWE*     NOT AVBL
HAKIOAWA*      NOT AVBL
HONOKANAIA*    NOT AVBL
KANELOA*         N/A     79  64  61 SE5G12    29.95F
KEALIALALO*    NOT AVBL
LUA MAKIKA*    NOT AVBL
$$

HIZ014>015-200200-
LANAI-

CITY           SKY/WX    TMP DP  RH WIND       PRES   REMARKS
LANAI CITY     FAIR      71  60  68 W8        29.94S
LANAI 1*       NOT AVBL
$$

HIZ017>028-200200-
MAUI-

CITY           SKY/WX    TMP DP  RH WIND       PRES   REMARKS
KAHULUI        MOSUNNY   77  65  66 N10       29.89F
KAPALUA-W MAUI MOSUNNY   75  70  83 N14       29.89
HANA AIRPORT   PTSUNNY   75  32  20 NW5       29.92S
HANA*            N/A     75 N/A N/A N6          N/A
HALEAKALA SUMM   N/A     43  34  70 W15         N/A
MAALAEA BAY*   NOT AVBL
HALEAKALA*     NOT AVBL
KAUPO GAP*     NOT AVBL
KULA 1*          N/A     61  39  44 W3G9        N/A
$$

HIZ023>026-200200-
BIG ISLAND OF HAWAII COAST AND LOWER SLOPES-

CITY           SKY/WX    TMP DP  RH WIND       PRES   REMARKS
KAILUA KONA    MOSUNNY   80  61  52 W7        29.85F
HILO           LGT RAIN  72  67  84 W3        29.89F
HONOKAA*         N/A     77 N/A N/A VRB1        N/A
KAWAIHAE MWT*    N/A     82 N/A N/A W6          N/A
KAWAIHAE*      NOT AVBL
SOUTH POINT*     N/A     72 N/A N/A N8          N/A
UPOLU AIRPORT* NOT AVBL
KAMUELA*       CLEAR     73  52  46 CALM      29.97S
HAKALAU*         N/A     53  50  90 NW3G13      N/A
KALOKO-HONOKO* NOT AVBL
PALI 2*          N/A     66  61  82 NW8         N/A
KEALAKOMO*       N/A     81  68  65 E13G18      N/A
KAUPULEHU*     NOT AVBL
KAPAPALA*        N/A     69  64  83 SW5G13      N/A
LOWER KAHUKU*  NOT AVBL
PUHE CS*       NOT AVBL
PUHO CS*       NOT AVBL
PTA KEAMUKU*     N/A     73  54  49 W9G15       N/A
WAIKOLOA*      NOT AVBL
$$

HIZ027>028-200200-
BIG ISLAND OF HAWAII INTERIOR AND SUMMMITS-

CITY           SKY/WX    TMP DP  RH WIND       PRES   REMARKS
BRADSHAW FIELD MOSUNNY   65  46  50 W9        30.17F
MK VISITOR CEN   N/A     50  36  57 W14         N/A
MAUNA KEA*       N/A     25  23  93 SW48        N/A  WCI   4
MAUNA LOA*       N/A    N/A N/A N/A MISG        N/A
MAUNA LOA 1*   NOT AVBL
PTA KIPUKA*      N/A     66  55  68 S6G15       N/A
PTA RANGE 17*    N/A     64  52  63 SE12G18     N/A
PTA WEST*        N/A     66  52  59 NW6G15      N/A
NENE CABIN*    NOT AVBL
AHUMOA*        NOT AVBL
PTA PORTABLE*  NOT AVBL
PUU MALI*        N/A     50 N/A N/A E5G18       N/A
$$

HIC003-200200-
NORTHWEST ISLANDS-

CITY           SKY/WX    TMP DP  RH WIND       PRES   REMARKS
MIDWAY ISLAND  SUNNY     73  61  64 SE14      30.07F
MIDWAY NOS*    NOT AVBL
FRENCH FRIGATE NOT AVBL
$$

PHZ110>124-180-200200-
BUOY REPORTS

STATION/POSITION TIME  TEMP    WIND        PRES    WAVE   SWELL
                       AIR SEA DIR/SP/G            HT/PER HT/DIR
                 (UTC) (F)     (DEG/KT/KT) (MB)    (FT/S) (FT/D)
BUOY 51001       0050   77 78   70/ 12/ 16 1010.5F   7/ 8   5
BUOY 51101       0050   71 74   20/ 14/ 17 1014.1F   8/ 9   7/ 80
BUOY 51100       NOT AVBL
BUOY 51002       0050   77 78   40/ 10/ 12 1010.6F   7/11   7/340
BUOY 51003       0050   75 77   50/ 10/ 12 1011.7F   8/ 9   8/ 40
BUOY 51004       0050   75 77   60/ 10/ 14 1011.6F   8/ 9   8/ 60
WAIMEA BAY#      NOT AVBL
MOKAPU POINT#    0004      74                N/A     6/ 9   2/ 20
LANAI#           NOT AVBL
BARBERS PT 2#    NOT AVBL
PAUWELA#         0030      76                N/A     7/ 9   3/320
HILO#            0057      76                N/A     8/ 9   3/ 70
KANEOHE BAY#     NOT AVBL
KANEOHE BAY 2#   NOT AVBL
HANALEI#         0052      76                N/A     6/15   3/320
KAHULUI HARBOR   0048   72 77   10/  8/ 11 1011.9F
HONOLULU HARBOR  0048   77 74  170/  5/  7 1011.2F
PEARL HARBOR#    NOT AVBL
KILO NALU        NOT AVBL
HILO HARBOR      0048   71 75  240/  4/  5 1011.9S
MOKUOLOE         0036   73 75   20/  6/  7 1012.3F
NAWILIWILI       0048   73 76   60/  6/ 12 1013.0F
WHOTS BUOY       NOT AVBL
BUOY 51028       NOT AVBL
$$

......................KEY........................................
  SKY/WX - SKY CONDITIONS/PRESENT WEATHER
  TMP    - TEMPERATURE IN FAHRENHEIT
  DWPT   - DEWPOINT IN FAHRENHEIT
  RH     - RELATIVE HUMIDITY IN PERCENT
  WIND   - DIRECTION AND SPEED /MPH FOR ISLANDS...KTS FOR BUOYS/
  PRES   - MEAN SEA LEVEL PRESSURE IN INCHES OF HG
  VSB    - VISIBILITY IN MILES
  HX     - HEAT INDEX
  WCI    - WIND CHILL INDEX
  VRB    - VARIABLE WIND DIRECTION
  N/A    - NOT AVAILABLE




USA.gov is the U.S. government's official web portal to all federal, state and local government web resources and services.